When you browse on this site, cookies collect data to enhance your experience and personalize the content and advertising you see.
Visit our Privacy Policy to learn more. By continuing to use the site, you agree to this use of cookies and data.
  • In Spain
  • List of Countries
  • For 7 days
  • Water Temperature
  • Satellite Maps
  • Weather Map
  • Weather Widgets
  • user-avatar
    Login

    Hourly Weather Andryushkovo

    Today, 20 March, Wednesday

    Time Temperature Precipitation Wind Pressure Humidity
    00:00 0°C° 0 mm 3 mps 748 mmHg 98%
    01:00 0°C° 0 mm 3 mps 748 mmHg 97%
    02:00 -1°C° 0 mm 3 mps 748 mmHg 97%
    03:00 -1°C° 0 mm 3 mps 748 mmHg 97%
    04:00 -1°C° 0 mm 3 mps 748 mmHg 96%
    05:00 -1°C° 0 mm 3 mps 748 mmHg 95%
    06:00 -1°C° 0 mm 3 mps 747 mmHg 94%
    07:00 -1°C° 0 mm 3 mps 748 mmHg 93%
    08:00 0°C° 0 mm 3 mps 748 mmHg 92%
    09:00 0°C° 0 mm 3 mps 748 mmHg 91%
    10:00 +1°C° 0 mm 3 mps 748 mmHg 87%
    11:00 +2°C° 0 mm 3 mps 748 mmHg 84%
    12:00 +3°C° 0 mm 3 mps 748 mmHg 81%
    13:00 +3°C° 0 mm 3 mps 748 mmHg 79%
    14:00 +3°C° 0 mm 3 mps 748 mmHg 77%
    15:00 +3°C° 0 mm 3 mps 749 mmHg 75%
    16:00 +2°C° 0 mm 3 mps 749 mmHg 78%
    17:00 +2°C° 0 mm 3 mps 749 mmHg 81%
    18:00 +2°C° 0 mm 2 mps 749 mmHg 84%
    19:00 +1°C° 0 mm 2 mps 749 mmHg 86%
    20:00 -1°C° 0 mm 2 mps 749 mmHg 88%
    21:00 -1°C° 0 mm 2 mps 749 mmHg 90%
    22:00 -2°C° 0 mm 2 mps 749 mmHg 90%
    23:00 -2°C° 0 mm 2 mps 749 mmHg 91%

    Tomorrow, 21 March, Thursday

    Time Temperature Precipitation Wind Pressure Humidity
    00:00 -2°C° 0 mm 2 mps 749 mmHg 91%
    01:00 -2°C° 0 mm 3 mps 748 mmHg 89%
    02:00 -2°C° 0 mm 3 mps 748 mmHg 87%
    03:00 -2°C° 0 mm 3 mps 748 mmHg 85%
    04:00 -2°C° 0 mm 3 mps 748 mmHg 83%
    05:00 -1°C° 0 mm 3 mps 747 mmHg 80%
    06:00 -1°C° 0 mm 3 mps 747 mmHg 78%
    07:00 -2°C° 0 mm 4 mps 746 mmHg 77%
    08:00 -2°C° 0 mm 4 mps 746 mmHg 77%
    09:00 -2°C° 0 mm 5 mps 746 mmHg 77%
    10:00 -1°C° 0.3 mm 5 mps 745 mmHg 79%
    11:00 -1°C° 0.3 mm 5 mps 745 mmHg 82%
    12:00 -1°C° 0.3 mm 5 mps 745 mmHg 84%
    13:00 -1°C° 0.1 mm 5 mps 745 mmHg 84%
    14:00 0°C° 0.1 mm 4 mps 744 mmHg 85%
    15:00 0°C° 0.1 mm 4 mps 744 mmHg 85%
    16:00 0°C° 0.1 mm 4 mps 744 mmHg 86%
    17:00 0°C° 0.1 mm 4 mps 744 mmHg 88%
    18:00 0°C° 0.1 mm 4 mps 744 mmHg 89%
    19:00 0°C° 0.1 mm 4 mps 745 mmHg 88%
    20:00 -1°C° 0.1 mm 4 mps 745 mmHg 87%
    21:00 -1°C° 0.1 mm 4 mps 745 mmHg 87%
    22:00 -2°C° 0 mm 4 mps 745 mmHg 88%
    23:00 -2°C° 0 mm 4 mps 746 mmHg 90%

    Day after tomorrow, 22 March, Friday

    Time Temperature Precipitation Wind Pressure Humidity
    00:00 -3°C° 0 mm 4 mps 746 mmHg 92%
    01:00 -2°C° 0 mm 3 mps 746 mmHg 92%
    02:00 -2°C° 0 mm 3 mps 746 mmHg 92%
    03:00 -2°C° 0 mm 2 mps 746 mmHg 92%
    04:00 -2°C° 0 mm 2 mps 746 mmHg 92%
    05:00 -2°C° 0 mm 2 mps 746 mmHg 91%
    06:00 -2°C° 0 mm 2 mps 745 mmHg 90%
    07:00 -1°C° 0 mm 3 mps 745 mmHg 89%
    08:00 0°C° 0 mm 3 mps 745 mmHg 88%
    09:00 0°C° 0 mm 3 mps 745 mmHg 86%
    10:00 +1°C° 0.1 mm 3 mps 744 mmHg 85%
    11:00 +1°C° 0.1 mm 4 mps 744 mmHg 83%
    12:00 +1°C° 0.1 mm 4 mps 743 mmHg 82%
    13:00 +1°C° 0.4 mm 4 mps 743 mmHg 84%
    14:00 +1°C° 0.4 mm 4 mps 742 mmHg 86%
    15:00 +1°C° 0.4 mm 5 mps 742 mmHg 89%
    16:00 +1°C° 0 mm 4 mps 742 mmHg 91%
    17:00 +1°C° 0 mm 4 mps 742 mmHg 93%
    18:00 +1°C° 0 mm 4 mps 742 mmHg 95%
    19:00 +1°C° 0 mm 4 mps 742 mmHg 94%
    20:00 +1°C° 0 mm 5 mps 742 mmHg 92%
    21:00 +1°C° 0 mm 5 mps 742 mmHg 91%
    22:00 0°C° 0 mm 5 mps 742 mmHg 91%
    23:00 0°C° 0 mm 5 mps 743 mmHg 91%

    23 March, Saturday

    Time Temperature Precipitation Wind Pressure Humidity
    00:00 -1°C° 0 mm 5 mps 743 mmHg 91%
    01:00 -2°C° 0 mm 5 mps 743 mmHg 90%
    02:00 -2°C° 0 mm 5 mps 743 mmHg 88%
    03:00 -4°C° 0 mm 5 mps 743 mmHg 87%
    04:00 -4°C° 0 mm 5 mps 743 mmHg 86%
    05:00 -3°C° 0 mm 4 mps 743 mmHg 86%
    06:00 -4°C° 0 mm 4 mps 743 mmHg 85%
    07:00 -3°C° 0 mm 4 mps 744 mmHg 83%
    08:00 -3°C° 0 mm 4 mps 744 mmHg 81%
    09:00 -2°C° 0 mm 4 mps 744 mmHg 79%
    10:00 -1°C° 0 mm 4 mps 744 mmHg 75%
    11:00 0°C° 0 mm 4 mps 744 mmHg 71%
    12:00 +1°C° 0 mm 4 mps 744 mmHg 67%
    13:00 +1°C° 0 mm 4 mps 743 mmHg 66%
    14:00 +3°C° 0 mm 3 mps 743 mmHg 64%
    15:00 +4°C° 0 mm 3 mps 743 mmHg 63%
    16:00 +3°C° 0 mm 3 mps 742 mmHg 66%
    17:00 +2°C° 0 mm 3 mps 742 mmHg 70%
    18:00 +2°C° 0 mm 3 mps 741 mmHg 73%
    19:00 +2°C° 0 mm 3 mps 741 mmHg 77%
    20:00 +1°C° 0 mm 4 mps 740 mmHg 81%
    21:00 +1°C° 0 mm 5 mps 739 mmHg 85%
    22:00 +2°C° 0.1 mm 5 mps 739 mmHg 88%
    23:00 +2°C° 0.1 mm 6 mps 738 mmHg 91%

    24 March, Sunday

    Time Temperature Precipitation Wind Pressure Humidity
    00:00 +3°C° 0.1 mm 6 mps 737 mmHg 94%
    01:00 +3°C° 0.6 mm 6 mps 737 mmHg 93%
    02:00 +3°C° 0.6 mm 6 mps 737 mmHg 93%
    03:00 +3°C° 0.6 mm 6 mps 736 mmHg 92%
    04:00 +2°C° 0 mm 6 mps 737 mmHg 91%
    05:00 +1°C° 0 mm 5 mps 737 mmHg 90%
    06:00 -1°C° 0 mm 5 mps 737 mmHg 89%
    07:00 -1°C° 0 mm 6 mps 737 mmHg 83%
    08:00 -1°C° 0 mm 6 mps 738 mmHg 77%
    09:00 -1°C° 0 mm 7 mps 738 mmHg 71%
    10:00 0°C° 0 mm 8 mps 738 mmHg 63%
    11:00 +1°C° 0 mm 9 mps 737 mmHg 55%
    12:00 +1°C° 0 mm 10 mps 737 mmHg 47%
    13:00 +2°C° 0 mm 10 mps 737 mmHg 47%
    14:00 +2°C° 0 mm 10 mps 737 mmHg 46%
    15:00 +2°C° 0 mm 10 mps 737 mmHg 46%
    16:00 +1°C° 0 mm 9 mps 736 mmHg 50%
    17:00 +1°C° 0 mm 8 mps 736 mmHg 53%
    18:00 0°C° 0 mm 7 mps 736 mmHg 57%
    19:00 -1°C° 0 mm 7 mps 736 mmHg 59%
    20:00 -1°C° 0 mm 6 mps 736 mmHg 62%
    21:00 -2°C° 0 mm 6 mps 736 mmHg 64%
    22:00 -2°C° 0 mm 6 mps 736 mmHg 65%
    23:00 -3°C° 0 mm 6 mps 736 mmHg 65%

    25 March, Monday

    Time Temperature Precipitation Wind Pressure Humidity
    00:00 -3°C° 0 mm 6 mps 736 mmHg 65%
    01:00 -3°C° 0 mm 6 mps 736 mmHg 66%
    02:00 -4°C° 0 mm 6 mps 736 mmHg 66%
    03:00 -4°C° 0 mm 5 mps 737 mmHg 67%
    04:00 -4°C° 0 mm 5 mps 736 mmHg 67%
    05:00 -4°C° 0 mm 5 mps 736 mmHg 67%
    06:00 -4°C° 0 mm 5 mps 736 mmHg 68%
    07:00 -4°C° 0 mm 5 mps 736 mmHg 64%
    08:00 -3°C° 0 mm 6 mps 737 mmHg 59%
    09:00 -2°C° 0 mm 6 mps 737 mmHg 55%
    10:00 -1°C° 0 mm 6 mps 736 mmHg 51%
    11:00 +1°C° 0 mm 6 mps 736 mmHg 47%
    12:00 +2°C° 0 mm 5 mps 735 mmHg 43%
    13:00 +2°C° 0 mm 6 mps 735 mmHg 43%
    14:00 +3°C° 0 mm 6 mps 734 mmHg 43%
    15:00 +3°C° 0 mm 6 mps 734 mmHg 44%
    16:00 +3°C° 0.1 mm 5 mps 733 mmHg 50%
    17:00 +3°C° 0.1 mm 4 mps 733 mmHg 57%
    18:00 +2°C° 0.1 mm 3 mps 732 mmHg 63%
    19:00 +2°C° 0.1 mm 3 mps 732 mmHg 68%
    20:00 +1°C° 0.1 mm 3 mps 731 mmHg 72%
    21:00 +1°C° 0.1 mm 3 mps 731 mmHg 76%
    22:00 +1°C° 0.1 mm 3 mps 730 mmHg 80%
    23:00 0°C° 0.1 mm 3 mps 730 mmHg 83%
    Show more